[[{"header":{"parameterUnit":"m.s-1","parameterCategory":1,"la1":30.2991,"la2":30.254,"lo1":-89.0895,"lo2":-89.0444,"dy":0.0017,"dx":0.0017,"nx":28,"ny":28,"refTime":"2025-01-29T09:00:00:Z","depth":0,"parameterNumber":2,"parameterNumberName":"U-component_of_WINDS"},"data":[0,0,0,0,0,0,0,0,0,0,0,0,0,0,0,0,0,0,0,0,0,0,0,0,0,0,0,0,0,0,0,0,0,0,0,0,0,0,0,0,0,0,0,0,0,0,0,0,0,0,0,0,0,0,0,0,0,0,-3.6615,-3.6616,0,-3.6677,-3.6678,-3.6679,-3.6618,-3.6616,-3.6613,-3.6611,-3.6673,-3.6677,-3.6681,0,0,0,0,0,0,0,0,0,0,0,0,0,-3.6442,-3.6446,-3.6615,-3.6616,-3.6616,-3.6677,-3.6678,-3.6679,-3.6618,-3.6616,-3.6613,-3.661,-3.6672,-3.6676,-3.6681,0,0,0,0,0,0,0,0,0,0,0,0,0,-3.6512,-3.6447,-3.6615,-3.6594,-3.6592,-3.6677,-3.6678,-3.6679,-3.6619,-3.6615,-3.6612,-3.6609,-3.667,-3.6676,-3.6682,-3.679,0,0,-3.67,-3.6702,0,0,0,0,0,0,0,0,-3.6508,-3.6518,-3.6596,-3.6595,-3.6594,-3.6636,-3.664,-3.6716,-3.662,-3.6609,-3.6611,-3.6607,-3.6664,-3.667,-3.6689,-3.6793,-3.6795,-3.67,-3.6704,-3.6706,-3.6708,0,0,0,0,0,0,0,-3.6503,-3.6515,-3.6639,-3.6597,-3.6596,-3.6581,-3.6587,-3.6654,-3.6656,-3.661,-3.6605,-3.6614,-3.6662,-3.6684,-3.669,-3.6796,-3.67,-3.6705,-3.6709,-3.6711,-3.6992,-3.6995,0,0,0,0,0,0,-3.6501,-3.6512,-3.6637,-3.6641,-3.6541,-3.6587,-3.6593,-3.6626,-3.6655,-3.6656,-3.6617,-3.6611,-3.6676,-3.6684,-3.6692,-3.6821,-3.6706,-3.6712,-3.6715,-3.6988,-3.6993,-3.6997,0,0,0,0,0,0,-3.6498,-3.6513,-3.6635,-3.6576,-3.659,-3.6594,-3.6631,-3.6629,-3.6651,-3.666,-3.666,-3.6638,-3.6673,-3.6684,-3.6766,-3.6822,-3.6714,-3.6719,-3.6983,-3.6989,-3.6995,-3.7078,0,0,0,0,0,0,-3.6493,-3.6512,-3.6553,-3.6577,-3.6593,-3.6708,-3.6634,-3.6633,-3.6661,-3.6654,-3.668,-3.6681,-3.6671,-3.6758,-3.6772,-3.6828,-3.6724,-3.6978,-3.6986,-3.6993,-3.707,-3.7086,-3.71,0,0,0,0,0,-3.6487,-3.6574,-3.6556,-3.6571,-3.6645,-3.6712,-3.6721,-3.6708,-3.6666,-3.6707,-3.6714,-3.6681,-3.6814,-3.6767,-3.6782,-3.6841,-3.6974,-3.6984,-3.6992,-3.7064,-3.7083,-3.7099,0,0,0,0,0,0,-3.6555,-3.6576,-3.6556,-3.6654,-3.6682,-3.6701,-3.6753,-3.6729,-3.6768,-3.676,-3.6742,-3.6748,-3.6835,-3.6846,-3.6793,-3.6947,-3.6887,-3.69,-3.6936,-3.6955,-3.6969,-3.6964,-3.6729,0,0,0,0,0,-3.6582,-3.6635,-3.665,-3.6734,-3.675,-3.6749,-3.6778,-3.6766,-3.6793,-3.6804,-3.6816,-3.6844,-3.6892,-3.6924,-3.6969,-3.7072,-3.7077,-3.712,-3.7135,-3.7147,-3.7157,-3.7213,-3.7232,-3.7026,-3.7026,-3.7026,0,0,-3.6637,-3.6655,-3.6689,-3.6749,-3.6769,-3.6824,-3.6759,-3.682,-3.686,-3.6813,-3.6892,-3.6902,-3.6932,-3.7025,-3.7067,-3.7037,-3.7216,-3.7158,-3.7168,-3.7172,-3.7224,-3.7244,-3.7261,-3.7032,-3.7031,-3.703,0,0,-3.6765,-3.6785,-3.6857,-3.6879,-3.6911,-3.691,-3.6928,-3.6952,-3.6957,-3.7035,-3.7002,-3.7049,-3.7132,-3.7155,-3.7178,-3.7316,-3.7287,-3.7332,-3.7408,-3.7462,-3.7478,-3.7492,-3.7541,-3.7559,-3.7342,-3.7343,-3.7343,0,-3.6829,-3.6911,-3.6897,-3.696,-3.6987,-3.6949,-3.7022,-3.7044,-3.7088,-3.7108,-3.7074,-3.7178,-3.7196,-3.7294,-3.7328,-3.7347,-3.7367,-3.7328,-3.7477,-3.7491,-3.7504,-3.7551,-3.7569,-3.7348,-3.7347,-3.7347,-3.7346,0,-3.6988,-3.7046,-3.71,-3.7145,-3.7179,-3.7246,-3.7242,-3.7278,-3.7263,-3.7266,-3.7347,-3.7367,-3.7415,-3.7438,-3.7424,-3.7534,-3.7515,-3.748,-3.7419,-3.7529,-3.7573,-3.759,-3.7355,-3.7353,-3.7352,-3.735,0,0,-3.716,-3.7197,-3.7217,-3.7238,-3.7271,-3.7314,-3.7381,-3.7429,-3.7459,-3.7492,-3.7547,-3.7619,-3.7587,-3.7613,-3.7601,-3.7649,-3.7757,-3.7608,-3.7608,-3.7634,-3.788,-3.7906,-3.7926,-3.7739,-3.7742,-3.7745,-3.7877,0,-3.7288,-3.7404,-3.7394,-3.7504,-3.7556,-3.7521,-3.7579,-3.7605,-3.7611,-3.7656,-3.7661,-3.7712,-3.7666,-3.7682,-3.7728,-3.7734,-3.7806,-3.7725,-3.7789,-3.7792,-3.7782,-3.7949,-3.7976,-3.81,-3.7894,-3.7897,-3.7899,0,-3.7454,-3.7493,-3.7608,-3.7634,-3.7655,-3.7708,-3.7751,-3.7795,-3.7824,-3.7825,-3.7854,-3.7835,-3.7902,-3.7841,-3.7932,-3.7877,-3.7903,-3.7911,-3.7915,-3.792,-3.7851,-3.7957,-3.8139,-3.8157,-3.7926,-3.7924,-3.7922,0,-3.7566,-3.7648,-3.7728,-3.7746,-3.7778,-3.7816,-3.7831,-3.7857,-3.7886,-3.7925,-3.7944,-3.7989,-3.8014,-3.8049,-3.8042,-3.7999,-3.8136,-3.8074,-3.8137,-3.8138,-3.8166,-3.8164,-3.8354,-3.8185,-3.8185,-3.8185,-3.8184,0,-3.771,-3.7782,-3.7779,-3.7827,-3.7907,-3.7895,-3.7973,-3.7984,-3.8008,-3.8058,-3.803,-3.8078,-3.8067,-3.8114,-3.8109,-3.8185,-3.8197,-3.8198,-3.8196,-3.82,-3.82,-3.8216,-3.8207,-3.819,-3.8188,-3.8187,-3.8187,0,-3.7849,-3.785,-3.7934,-3.7958,-3.7966,-3.8023,-3.8044,-3.809,-3.8093,-3.8157,-3.8171,-3.8176,-3.823,-3.8228,-3.8289,-3.8285,-3.8379,-3.8367,-3.837,-3.8367,-3.8429,-3.8423,-3.8635,-3.8662,-3.8477,-3.8479,-3.848,0,-3.794,-3.7995,-3.8025,-3.8057,-3.8075,-3.8127,-3.8157,-3.8148,-3.8181,-3.8219,-3.8261,-3.8313,-3.8353,-3.8442,-3.845,-3.8497,-3.8486,-3.8557,-3.8492,-3.8495,-3.8486,-3.8482,-3.8487,-3.8569,-3.8571,-3.8573,-3.8574,0,-3.8102,-3.81,-3.8146,-3.8192,-3.823,-3.8266,-3.8298,-3.8326,-3.832,-3.8359,-3.8414,-3.8446,-3.8509,-3.8561,-3.8606,-3.8621,-3.8597,-3.8595,-3.8611,-3.8615,-3.8614,-3.8615,-3.8403,-3.8589,-3.8588,-3.8587,-3.8586,-3.8585,-3.8219,-3.8266,-3.8295,-3.8347,-3.8371,-3.8403,-3.8447,-3.8457,-3.8503,-3.8554,-3.8546,-3.8608,-3.8637,-3.8695,-3.8714,-3.8762,-3.8737,-3.8762,-3.8768,-3.8773,-3.878,-3.8608,-3.8771,-3.877,-3.877,-3.8769,-3.8769,0,-3.8379,-3.8396,-3.8444,-3.8491,-3.8532,-3.8508,-3.8543,-3.8579,-3.8634,-3.8663,-3.8704,-3.8768,-3.8819,-3.8832,-3.8881,-3.8917,-3.8907,-3.893,-3.8926,-3.893,-3.8801,-3.8781,-3.8937,-3.8937,-3.8937,-3.8937,-3.8937,-3.8937,-3.8467,-3.8545,-3.8546,-3.8636,-3.8653,-3.8714,-3.8736,-3.8765,-3.8788,-3.8861,-3.8904,-3.8913,-3.8936,-3.8986,-3.9031,-3.9034,-3.9052,-3.9079,-3.9078,-3.8956,-3.8939,-3.8923,-3.8904,-3.9084,-3.9084,-3.9203,-3.9204,-3.9205]},{"header":{"parameterUnit":"m.s-1","parameterCategory":1,"la1":30.2991,"la2":30.254,"lo1":-89.0895,"lo2":-89.0444,"dy":0.0017,"dx":0.0017,"nx":28,"ny":28,"refTime":"2025-01-29T09:00:00:Z","depth":0,"parameterNumber":3,"parameterNumberName":"V-component_of_WINDS"},"data":[0,0,0,0,0,0,0,0,0,0,0,0,0,0,0,0,0,0,0,0,0,0,0,0,0,0,0,0,0,0,0,0,0,0,0,0,0,0,0,0,0,0,0,0,0,0,0,0,0,0,0,0,0,0,0,0,0,0,1.1821,1.1821,0,1.1854,1.1855,1.1855,1.186,1.186,1.186,1.1859,1.1893,1.1894,1.1895,0,0,0,0,0,0,0,0,0,0,0,0,0,1.1761,1.1763,1.1821,1.1821,1.1821,1.1854,1.1855,1.1855,1.186,1.186,1.186,1.1859,1.1892,1.1894,1.1895,0,0,0,0,0,0,0,0,0,0,0,0,0,1.179,1.1763,1.182,1.1828,1.1829,1.1854,1.1855,1.1855,1.186,1.186,1.186,1.1859,1.1892,1.1893,1.1895,1.1915,0,0,1.19,1.1901,0,0,0,0,0,0,0,0,1.1789,1.1792,1.1826,1.1828,1.1829,1.1853,1.1846,1.1875,1.1861,1.1848,1.1859,1.1859,1.188,1.1882,1.1889,1.1916,1.1918,1.1901,1.1902,1.1902,1.1903,0,0,0,0,0,0,0,1.1787,1.1791,1.1834,1.1827,1.1828,1.183,1.1834,1.1852,1.1866,1.1849,1.185,1.1854,1.188,1.1888,1.189,1.1918,1.1901,1.1902,1.1903,1.1904,1.1965,1.1966,0,0,0,0,0,0,1.1783,1.1789,1.1833,1.1835,1.1807,1.1831,1.1835,1.1845,1.1866,1.1869,1.1854,1.1854,1.1885,1.1888,1.1891,1.1918,1.1902,1.1904,1.1905,1.1965,1.1966,1.1966,0,0,0,0,0,0,1.1782,1.1787,1.1831,1.1812,1.1818,1.1833,1.1844,1.1846,1.1854,1.187,1.1872,1.186,1.1885,1.1889,1.191,1.1919,1.1905,1.1906,1.1964,1.1965,1.1966,1.1969,0,0,0,0,0,0,1.178,1.1787,1.1794,1.1812,1.1819,1.1849,1.1845,1.1847,1.1857,1.1857,1.1875,1.1878,1.1885,1.1907,1.1911,1.1921,1.1908,1.1963,1.1965,1.1966,1.1968,1.197,1.1971,0,0,0,0,0,1.1778,1.1792,1.1794,1.1799,1.1828,1.1849,1.1853,1.1861,1.1858,1.1866,1.1876,1.1877,1.1917,1.1909,1.1914,1.1924,1.1963,1.1964,1.1965,1.1967,1.1969,1.1971,0,0,0,0,0,0,1.1773,1.1795,1.1797,1.1818,1.1832,1.185,1.186,1.1863,1.1878,1.1877,1.1887,1.1891,1.1911,1.192,1.191,1.1946,1.194,1.1942,1.1939,1.1942,1.1943,1.1941,1.1909,0,0,0,0,0,1.1775,1.179,1.1808,1.1824,1.1831,1.1845,1.1854,1.1859,1.1874,1.188,1.1892,1.1906,1.1922,1.1932,1.1947,1.1969,1.1974,1.1979,1.1981,1.1982,1.1984,1.1999,1.2002,1.1971,1.1971,1.1971,0,0,1.1777,1.1791,1.18,1.1824,1.1835,1.1851,1.1849,1.1866,1.1878,1.1882,1.1903,1.1912,1.1929,1.1951,1.1961,1.1958,1.1994,1.1984,1.1984,1.1986,1.2,1.2003,1.2006,1.1971,1.1971,1.1971,0,0,1.1791,1.1802,1.1819,1.1831,1.1849,1.1858,1.1862,1.1881,1.1888,1.1909,1.1913,1.1928,1.1954,1.1967,1.1977,1.1998,1.2001,1.2003,1.2012,1.2026,1.2028,1.2031,1.204,1.2043,1.2005,1.2005,1.2005,0,1.1792,1.1816,1.1826,1.1844,1.1855,1.1861,1.1878,1.1889,1.1911,1.1919,1.1916,1.1952,1.1963,1.1989,1.1995,1.2002,1.2008,1.2001,1.2027,1.203,1.2032,1.2041,1.2044,1.2005,1.2005,1.2005,1.2005,0,1.1818,1.1835,1.1846,1.1869,1.1881,1.1898,1.1911,1.1923,1.1928,1.1938,1.196,1.1975,1.1994,1.2001,1.2005,1.2028,1.2027,1.2025,1.202,1.2035,1.2044,1.2047,1.2006,1.2006,1.2006,1.2005,0,0,1.1827,1.1858,1.1862,1.1873,1.1895,1.1909,1.1927,1.1947,1.1958,1.1973,1.199,1.2014,1.2013,1.2025,1.2031,1.2043,1.2062,1.2041,1.2041,1.2046,1.2091,1.2093,1.2097,1.2064,1.2064,1.2065,1.2091,0,1.1845,1.1878,1.1888,1.1916,1.1933,1.1941,1.1957,1.1972,1.1983,1.1999,1.201,1.2028,1.2025,1.2032,1.2045,1.2057,1.2072,1.2055,1.208,1.2081,1.2077,1.2101,1.2102,1.2126,1.2094,1.2094,1.2095,0,1.1868,1.1887,1.1916,1.1939,1.1946,1.1961,1.1982,1.1997,1.2016,1.2022,1.2036,1.2042,1.2063,1.2056,1.2085,1.2074,1.2085,1.2093,1.2094,1.2097,1.2089,1.2106,1.2133,1.2137,1.21,1.21,1.2099,0,1.1875,1.1906,1.1929,1.1938,1.1964,1.1975,1.1986,1.2005,1.2017,1.2035,1.2044,1.2064,1.2075,1.2091,1.2103,1.2096,1.2132,1.2125,1.2139,1.2139,1.2146,1.2145,1.2176,1.2151,1.2151,1.2151,1.2151,0,1.1893,1.1911,1.1932,1.1946,1.1968,1.1981,1.2002,1.2013,1.203,1.2047,1.2054,1.207,1.2084,1.2103,1.2112,1.2136,1.214,1.2147,1.215,1.2147,1.2147,1.2155,1.2154,1.2152,1.2152,1.2152,1.2151,0,1.1903,1.1918,1.1943,1.1967,1.1974,1.1989,1.2009,1.2024,1.2035,1.2057,1.2063,1.2081,1.2103,1.2117,1.2144,1.215,1.2177,1.2178,1.2171,1.2173,1.2186,1.2185,1.2224,1.2231,1.22,1.22,1.22,0,1.1914,1.1929,1.1955,1.1968,1.198,1.1999,1.2013,1.2027,1.2041,1.2065,1.2077,1.21,1.2119,1.2154,1.217,1.2191,1.2194,1.2206,1.2197,1.2195,1.2196,1.2196,1.2198,1.2208,1.2208,1.2208,1.2208,0,1.1932,1.194,1.1959,1.1983,1.1999,1.2018,1.2036,1.2046,1.2063,1.2079,1.2102,1.2117,1.2147,1.217,1.2194,1.2206,1.2211,1.2211,1.2216,1.2214,1.221,1.2214,1.2177,1.221,1.221,1.221,1.221,1.221,1.1944,1.1959,1.1981,1.2003,1.2019,1.2037,1.2053,1.2067,1.2087,1.2113,1.212,1.2146,1.2167,1.2199,1.2212,1.2233,1.2231,1.2237,1.2238,1.224,1.2242,1.2206,1.2237,1.2237,1.2236,1.2236,1.2236,0,1.1964,1.198,1.2,1.2027,1.2046,1.205,1.2071,1.2086,1.2109,1.2128,1.2148,1.2176,1.22,1.2218,1.2243,1.2255,1.2258,1.2261,1.2261,1.2264,1.2241,1.2235,1.2259,1.2259,1.2259,1.2259,1.2259,1.2259,1.1977,1.2003,1.2014,1.2048,1.2063,1.2089,1.2101,1.2118,1.2135,1.2166,1.2187,1.2199,1.2219,1.2245,1.2268,1.2273,1.2282,1.2285,1.229,1.2268,1.2266,1.2263,1.2258,1.2286,1.2286,1.2313,1.2313,1.2313]}]]